"Timestamp","TZ","WindDir_Mean (deg)","WindSpd_Mean (km/h)","WindSpd_Min (km/h)","WindSpd_Max (km/h)","Temp_Mean (deg)","RH_Mean (%)","MSLP_Mean (hPa)","Rain_Acc (mm)","Rain_Intensity (mm/h)","Hail_Acc (hits/cm2)","Hail_Intensity (hits/cm2hr)","Solar_Mean (W/m2)"
2021/10/18 00:00:00.014,n,137,4.32,3.96,4.32,18.8,65.199996,1017.82,0,0,0,0,0.036583
2021/10/18 00:01:00.000,n,134,5.76,5.4,6.12,18.8,65.199996,1017.82,0,0,0,0,0.029602
2021/10/18 00:02:00.000,n,140,3.24,2.52,3.6,18.8,65.199996,1017.82,0,0,0,0,0.028725
2021/10/18 00:03:00.000,n,133,2.88,2.16,3.6,18.8,65.199996,1017.82,0,0,0,0,0.028725
2021/10/18 00:04:00.004,n,132,2.16,1.44,2.52,18.8,65.199996,1017.82,0,0,0,0,0.028725
2021/10/18 00:05:00.001,n,167,2.52,1.8,5.4,18.8,65.199996,1017.82,0,0,0,0,0.026131
2021/10/18 00:06:00.000,n,157,4.68,3.24,6.84,18.8,65.199996,1017.82,0,0,0,0,0.030518
2021/10/18 00:07:00.012,n,125,1.44,0.36,2.52,18.7,65.199996,1017.82,0,0,0,0,0.027885
2021/10/18 00:08:00.009,n,154,4.32,2.16,7.2,18.7,65.199996,1017.82,0,0,0,0,0.027885
2021/10/18 00:09:00.006,n,141,3.6,2.52,5.76,18.7,65.199996,1017.82,0,0,0,0,0.028725
2021/10/18 00:10:00.000,n,153,6.12,3.6,7.2,18.7,65.1,1017.82,0,0,0,0,0.027008
2021/10/18 00:11:00.000,n,141,3.24,2.16,3.96,18.7,65.199996,1017.82,0,0,0,0,0.027885
2021/10/18 00:12:00.000,n,118,2.16,1.8,2.88,18.7,65.199996,1017.82,0,0,0,0,0.021782
2021/10/18 00:13:00.000,n,148,5.4,4.68,6.84,18.7,65.1,1017.82,0,0,0,0,0.027885
2021/10/18 00:14:00.006,n,148,5.4,3.96,7.92,18.7,65.1,1017.82,0,0,0,0,0.026131
2021/10/18 00:15:00.003,n,138,5.04,4.68,5.4,18.8,65.1,1017.82,0,0,0,0,0.022659
2021/10/18 00:16:00.000,n,139,4.32,3.6,5.04,18.8,65.199996,1017.82,0,0,0,0,0.025291
2021/10/18 00:17:00.000,n,127,5.04,4.68,5.76,18.8,65.300004,1017.82,0,0,0,0,0.022659
2021/10/18 00:18:00.011,n,159,4.32,3.6,6.84,18.8,65.300004,1017.82,0,0,0,0,0.024376
2021/10/18 00:19:00.000,n,149,4.68,3.24,7.56,18.8,65.6,1017.82,0,0,0,0,0.022659
2021/10/18 00:20:00.000,n,147,2.52,1.8,2.52,18.8,65.6,1017.72,0,0,0,0,0.023537
2021/10/18 00:21:00.002,n,129,3.24,2.52,3.6,18.8,65.6,1017.72,0,0,0,0,0.024376
2021/10/18 00:22:00.000,n,128,3.96,3.96,4.32,18.8,65.6,1017.72,0,0,0,0,0.027008
2021/10/18 00:23:00.000,n,156,3.96,2.88,6.84,18.8,65.699996,1017.72,0,0,0,0,0.022659
2021/10/18 00:24:00.000,n,110,2.88,2.16,3.24,18.8,65.6,1017.72,0,0,0,0,0.025291
2021/10/18 00:25:00.009,n,147,2.88,2.16,3.6,18.8,65.699996,1017.82,0,0,0,0,0.026131
2021/10/18 00:26:00.007,n,142,3.96,3.6,4.32,18.8,65.9,1017.82,0,0,0,0,0.024376
2021/10/18 00:27:00.003,n,141,4.32,3.6,4.68,18.8,66.1,1017.82,0,0,0,0,0.022659
2021/10/18 00:28:00.000,n,138,3.96,3.6,4.32,18.8,65.800004,1017.82,0,0,0,0,0.025291
2021/10/18 00:29:00.000,n,124,3.96,3.24,4.32,18.8,65.800004,1017.72,0,0,0,0,0.025291
2021/10/18 00:30:00.000,n,130,3.6,2.52,4.68,18.8,66,1017.72,0,0,0,0,0.025291
2021/10/18 00:31:00.000,n,138,5.04,4.68,5.4,18.8,65.9,1017.72,0,0,0,0,0.025291
2021/10/18 00:32:00.004,n,149,4.68,2.88,7.56,18.8,65.9,1017.72,0,0,0,0,0.024376
2021/10/18 00:33:00.002,n,133,5.4,5.04,5.76,18.7,65.9,1017.72,0,0,0,0,0.026093
2021/10/18 00:34:00.000,n,146,5.04,4.32,5.4,18.7,65.800004,1017.72,0,0,0,0,0.032234
2021/10/18 00:35:00.011,n,134,2.88,1.8,3.24,18.7,65.800004,1017.62,0,0,0,0,0.030441
2021/10/18 00:36:00.008,n,189,1.08,0.36,3.24,18.7,65.699996,1017.62,0,0,0,0,0.031357
2021/10/18 00:37:00.000,n,138,5.04,4.32,5.4,18.7,65.699996,1017.62,0,0,0,0,0.030441
2021/10/18 00:38:00.001,n,149,4.32,3.6,4.68,18.7,65.800004,1017.62,0,0,0,0,0.032234
2021/10/18 00:39:00.000,n,153,2.52,1.8,3.96,18.7,65.800004,1017.62,0,0,0,0,0.032234
2021/10/18 00:40:00.000,n,128,6.48,5.76,7.2,18.7,65.800004,1017.62,0,0,0,0,0.033073
2021/10/18 00:41:00.000,n,148,3.24,2.88,3.6,18.7,65.699996,1017.62,0,0,0,0,0.032234
2021/10/18 00:42:00.007,n,144,3.6,2.88,3.96,18.7,65.800004,1017.62,0,0,0,0,0.031357
2021/10/18 00:43:00.004,n,125,2.88,1.08,3.96,18.7,65.9,1017.62,0,0,0,0,0.031357
2021/10/18 00:44:00.001,n,133,4.32,3.96,4.68,18.7,65.9,1017.62,0,0,0,0,0.033951
2021/10/18 00:45:00.015,n,127,3.6,1.8,3.96,18.7,65.9,1017.62,0,0,0,0,0.030441
2021/10/18 00:46:00.000,n,141,2.16,1.8,2.88,18.7,65.9,1017.62,0,0,0,0,0.032234
2021/10/18 00:47:00.000,n,150,5.76,4.32,8.64,18.7,66,1017.62,0,0,0,0,0.028725
2021/10/18 00:48:00.000,n,136,2.16,1.8,2.88,18.7,66,1017.62,0,0,0,0,0.027847
2021/10/18 00:49:00.000,n,144,3.6,2.52,4.32,18.7,66.1,1017.62,0,0,0,0,0.033951
2021/10/18 00:50:00.004,n,150,4.32,3.6,5.04,18.7,66.1,1017.52,0,0,0,0,0.033073
2021/10/18 00:51:00.002,n,113,3.6,3.24,4.32,18.7,66,1017.52,0,0,0,0,0.031357
2021/10/18 00:52:00.000,n,138,3.96,3.24,4.32,18.7,66.1,1017.52,0,0,0,0,0.032234
2021/10/18 00:53:00.012,n,150,5.04,1.44,7.56,18.7,66,1017.52,0,0,0,0,0.033073
2021/10/18 00:54:00.009,n,136,5.04,4.68,5.4,18.7,66,1017.52,0,0,0,0,0.031357
2021/10/18 00:55:00.000,n,122,2.88,1.08,3.6,18.7,66,1017.52,0,0,0,0,0.030441
2021/10/18 00:56:00.002,n,144,2.16,1.8,2.16,18.7,66,1017.52,0,0,0,0,0.031357
2021/10/18 00:57:00.000,n,119,3.24,2.88,3.96,18.7,65.9,1017.52,0,0,0,0,0.030441
2021/10/18 00:58:00.000,n,188,3.6,2.52,6.12,18.7,66.1,1017.52,0,0,0,0,0.033073
2021/10/18 00:59:00.000,n,106,2.52,1.8,2.88,18.7,66,1017.42,0,0,0,0,0.032234
2021/10/18 01:00:00.007,n,153,3.6,2.16,6.12,18.7,66.1,1017.42,0,0,0,0,0.033951
2021/10/18 01:01:00.004,n,134,3.96,3.6,4.68,18.7,66,1017.42,0,0,0,0,0.027008
2021/10/18 01:02:00.001,n,156,6.12,4.68,8.28,18.7,66.1,1017.42,0,0,0,0,0.031357
2021/10/18 01:03:00.014,n,129,4.32,3.96,4.68,18.7,66,1017.42,0,0,0,0,0.033073
2021/10/18 01:04:00.000,n,143,3.6,3.6,3.96,18.7,66.1,1017.42,0,0,0,0,0.032234
2021/10/18 01:05:00.000,n,136,2.16,1.44,2.88,18.7,66.1,1017.42,0,0,0,0,0.030441
2021/10/18 01:06:00.000,n,123,3.96,3.24,4.32,18.7,66.1,1017.42,0,0,0,0,0.031357
2021/10/18 01:07:00.002,n,122,2.88,2.52,3.24,18.7,66.1,1017.42,0,0,0,0,0.029602
2021/10/18 01:08:00.001,n,166,0.72,0.36,1.44,18.7,66.199996,1017.32,0,0,0,0,0.029602
2021/10/18 01:09:00.000,n,179,0.72,0,1.08,18.7,66.199996,1017.32,0,0,0,0,0.029602
2021/10/18 01:10:00.011,n,129,3.24,2.88,3.6,18.7,66,1017.32,0,0,0,0,0.029602
2021/10/18 01:11:00.008,n,136,3.6,2.88,3.96,18.7,66.1,1017.22,0,0,0,0,0.030441
2021/10/18 01:12:00.005,n,126,3.24,2.88,3.6,18.7,66.1,1017.22,0,0,0,0,0.028725
2021/10/18 01:13:00.000,n,132,3.24,2.88,3.6,18.7,66.199996,1017.22,0,0,0,0,0.028725
2021/10/18 01:14:00.000,n,161,3.96,2.52,6.48,18.7,66.300004,1017.22,0,0,0,0,0.030441
2021/10/18 01:15:00.000,n,195,3.24,2.52,5.4,18.7,66.4,1017.32,0,0,0,0,0.031357
2021/10/18 01:16:00.000,n,169,3.96,2.52,6.48,18.7,66.6,1017.32,0,0,0,0,0.027847
2021/10/18 01:17:00.007,n,150,1.44,1.44,1.44,18.7,66.699996,1017.32,0,0,0,0,0.028725
2021/10/18 01:18:00.005,n,136,0.72,0.36,1.8,18.7,66.800004,1017.32,0,0,0,0,0.030441
2021/10/18 01:19:00.001,n,231,0.72,0.36,1.08,18.7,67,1017.32,0,0,0,0,0.025253
2021/10/18 01:20:00.000,n,127,1.44,1.08,1.8,18.7,67,1017.32,0,0,0,0,0.028725
2021/10/18 01:21:00.011,n,214,0.72,0.36,1.44,18.7,67.1,1017.32,0,0,0,0,0.030441
2021/10/18 01:22:00.000,n,138,2.16,2.16,2.16,18.7,67.1,1017.32,0,0,0,0,0.030441
2021/10/18 01:23:00.000,n,150,2.52,2.16,2.52,18.7,67.2,1017.32,0,0,0,0,0.030441
2021/10/18 01:24:00.004,n,73,0.72,0.72,1.08,18.7,67.2,1017.22,0,0,0,0,0.027847
2021/10/18 01:25:00.001,n,130,2.16,1.44,2.88,18.7,67.3,1017.22,0,0,0,0,0.032234
2021/10/18 01:26:00.000,n,107,2.88,2.52,3.24,18.7,67.2,1017.12,0,0,0,0,0.028725
2021/10/18 01:27:00.000,n,103,2.16,1.8,2.52,18.7,67.3,1017.12,0,0,0,0,0.029602
2021/10/18 01:28:00.009,n,18,0.72,0,1.8,18.6,67.3,1017.12,0,0,0,0,0.027008
2021/10/18 01:29:00.007,n,71,2.16,1.44,2.52,18.7,67.2,1017.12,0,0,0,0,0.025253
2021/10/18 01:30:00.004,n,86,1.8,1.8,2.16,18.7,67.2,1017.12,0,0,0,0,0.027008
2021/10/18 01:31:00.002,n,120,2.16,2.16,2.52,18.7,67.3,1017.12,0,0,0,0,0.024376
2021/10/18 01:32:00.000,n,102,1.08,1.08,1.44,18.7,67.4,1017.22,0,0,0,0,0.025253
2021/10/18 01:33:00.000,n,79,1.44,1.44,1.8,18.6,67.6,1017.22,0,0,0,0,0.027008
2021/10/18 01:34:00.000,n,178,1.8,1.8,2.16,18.6,67.6,1017.12,0,0,0,0,0.027008
2021/10/18 01:35:00.008,n,148,1.44,1.08,1.8,18.6,67.8,1017.12,0,0,0,0,0.024376
2021/10/18 01:36:00.005,n,118,1.44,1.08,3.6,18.6,67.9,1017.12,0,0,0,0,0.024376
2021/10/18 01:37:00.003,n,111,0,0,0.36,18.6,67.9,1017.12,0,0,0,0,0.024376
2021/10/18 01:38:00.000,n,133,2.88,2.52,2.88,18.6,68,1017.12,0,0,0,0,0.024376
2021/10/18 01:39:00.012,n,138,2.88,2.52,3.24,18.6,68,1017.12,0,0,0,0,0.023499
2021/10/18 01:40:00.000,n,149,2.16,1.8,2.52,18.5,68.1,1017.02,0,0,0,0,0.020866
2021/10/18 01:41:00.000,n,129,3.6,3.24,3.6,18.5,68.2,1017.02,0,0,0,0,0.022659
2021/10/18 01:42:00.003,n,135,2.52,1.8,3.24,18.5,68.3,1017.02,0,0,0,0,0.025253
2021/10/18 01:43:00.001,n,139,2.16,2.16,2.52,18.5,68.2,1017.02,0,0,0,0,0.023499
2021/10/18 01:44:00.000,n,166,4.32,3.24,7.2,18.5,68.2,1017.02,0,0,0,0,0.020866
2021/10/18 01:45:00.000,n,190,1.08,0.36,1.8,18.5,68.2,1017.02,0,0,0,0,0.023499
2021/10/18 01:46:00.009,n,173,5.04,2.88,6.48,18.5,68,1017.12,0,0,0,0,0.025253
2021/10/18 01:47:00.006,n,194,2.16,1.44,2.88,18.5,68,1017.12,0,0,0,0,0.028725
2021/10/18 01:48:00.003,n,195,2.52,1.8,3.24,18.5,68,1017.12,0,0,0,0,0.025253
2021/10/18 01:49:00.001,n,187,3.24,2.52,5.4,18.5,67.7,1017.22,0,0,0,0,0.025253
2021/10/18 01:50:00.000,n,178,6.12,3.96,7.92,18.5,68.1,1017.22,0,0,0,0,0.026093
2021/10/18 01:51:00.000,n,199,3.6,2.16,6.48,18.5,67.8,1017.22,0,0,0,0,0.024376
2021/10/18 01:52:00.000,n,174,5.4,3.6,6.84,18.5,67.8,1017.22,0,0,0,0,0.023499
2021/10/18 01:53:00.006,n,182,3.24,2.52,5.4,18.6,67.7,1017.22,0,0,0,0,0.023499
2021/10/18 01:54:00.004,n,182,1.44,0.36,3.6,18.6,67.7,1017.22,0,0,0,0,0.025253
2021/10/18 01:55:00.001,n,206,0.72,0.72,1.08,18.6,67.6,1017.22,0,0,0,0,0.022659
2021/10/18 01:56:00.000,n,180,1.8,1.44,1.8,18.6,67.6,1017.12,0,0,0,0,0.025253
2021/10/18 01:57:00.013,n,198,1.08,0.72,1.08,18.7,67.5,1017.22,0,0,0,0,0.022659
2021/10/18 01:58:00.000,n,133,0.72,0.36,0.72,18.7,67.5,1017.22,0,0,0,0,0.023499
2021/10/18 01:59:00.000,n,239,0.36,0,0.72,18.7,67.5,1017.22,0,0,0,0,0.023499
2021/10/18 02:00:00.005,n,192,0.72,0.72,1.08,18.7,67.6,1017.22,0,0,0,0,0.026093
2021/10/18 02:01:00.002,n,150,0.36,0.36,0.36,18.7,67.7,1017.22,0,0,0,0,0.025253
2021/10/18 02:02:00.000,n,167,0.72,0.36,1.44,18.7,67.7,1017.22,0,0,0,0,0.027008
2021/10/18 02:03:00.000,n,166,2.88,1.44,5.4,18.8,67.7,1017.22,0,0,0,0,0.021782
2021/10/18 02:04:00.011,n,134,0.72,0.36,1.44,18.8,67.8,1017.22,0,0,0,0,0.023499
2021/10/18 02:05:00.009,n,167,2.52,1.44,4.68,18.7,68,1017.22,0,0,0,0,0.026093
2021/10/18 02:06:00.005,n,168,4.32,2.52,6.48,18.7,68.1,1017.12,0,0,0,0,0.027847
2021/10/18 02:07:00.000,n,174,3.24,1.8,5.76,18.7,68.2,1017.12,0,0,0,0,0.026093
2021/10/18 02:08:00.000,n,161,5.76,3.6,7.92,18.6,67.9,1017.02,0,0,0,0,0.023499
2021/10/18 02:09:00.000,n,166,6.84,4.68,8.64,18.6,67.3,1017.02,0,0,0,0,0.025253
2021/10/18 02:10:00.000,n,163,6.48,6.12,10.08,18.5,67.5,1017.02,0,0,0,0,0.025253
2021/10/18 02:11:00.008,n,145,4.68,3.96,5.04,18.5,67.8,1016.92,0,0,0,0,0.024376
2021/10/18 02:12:00.005,n,155,5.04,3.24,6.48,18.4,68,1016.92,0,0,0,0,0.025253
2021/10/18 02:13:00.002,n,156,6.12,5.04,9.36,18.4,68.2,1016.92,0,0,0,0,0.024376
2021/10/18 02:14:00.000,n,162,5.76,5.4,5.76,18.3,68.2,1016.92,0,0,0,0,0.026093
2021/10/18 02:15:00.013,n,164,7.2,3.96,7.56,18.3,68.3,1016.82,0,0,0,0,0.026093
2021/10/18 02:16:00.000,n,179,2.16,1.8,2.52,18.3,68.5,1016.82,0,0,0,0,0.025253
2021/10/18 02:17:00.000,n,171,3.6,1.8,7.92,18.3,68.6,1016.82,0,0,0,0,0.028725
2021/10/18 02:18:00.000,n,180,2.52,1.8,3.96,18.3,68.7,1016.82,0,0,0,0,0.027008
2021/10/18 02:19:00.003,n,167,6.48,4.68,8.64,18.3,69,1016.82,0,0,0,0,0.023499
2021/10/18 02:20:00.000,n,153,5.76,3.96,7.92,18.2,69.4,1016.82,0,0,0,0,0.025253
2021/10/18 02:21:00.000,n,159,5.4,5.04,9,18.2,69.6,1016.82,0,0,0,0,0.026093
2021/10/18 02:22:00.010,n,201,1.44,0.72,1.8,18.2,69.5,1016.82,0,0,0,0,0.024376
2021/10/18 02:23:00.007,n,203,2.88,2.16,3.24,18.2,69.5,1016.82,0,0,0,0,0.024376
2021/10/18 02:24:00.004,n,185,4.68,2.52,6.84,18.2,69.2,1016.82,0,0,0,0,0.026093
2021/10/18 02:25:00.001,n,159,7.56,3.96,8.28,18.1,69.2,1016.82,0,0,0,0,0.023499
2021/10/18 02:26:00.000,n,192,3.24,1.44,3.96,18.1,69.3,1016.82,0,0,0,0,0.020866
2021/10/18 02:27:00.000,n,205,1.44,0.72,2.16,18.1,69.4,1016.92,0,0,0,0,0.022659
2021/10/18 02:28:00.000,n,189,1.8,1.44,2.16,18.2,69.3,1016.92,0,0,0,0,0.023499
2021/10/18 02:29:00.009,n,90,0.72,0.36,1.44,18.2,69.4,1016.92,0,0,0,0,0.023499
2021/10/18 02:30:00.008,n,198,3.24,2.52,4.32,18.2,69.3,1017.02,0,0,0,0,0.024376
2021/10/18 02:31:00.005,n,285,3.24,2.88,3.6,18.2,69.3,1017.02,0,0,0,0,0.024376
2021/10/18 02:32:00.002,n,292,1.44,1.08,1.8,18.2,69.4,1016.92,0,0,0,0,0.021782
2021/10/18 02:33:00.000,n,282,1.08,0.72,1.44,18.2,69.5,1016.92,0,0,0,0,0.023499
2021/10/18 02:34:00.000,n,61,1.44,1.08,1.8,18.2,69.4,1016.92,0,0,0,0,0.018272
2021/10/18 02:35:00.000,n,49,1.44,0.36,2.88,18.2,69.5,1016.92,0,0,0,0,0.023499
2021/10/18 02:36:00.000,n,202,1.44,1.08,2.16,18.2,69.2,1016.92,0,0,0,0,0.022659
2021/10/18 02:37:00.007,n,84,0.72,0.36,0.72,18.2,69.2,1016.92,0,0,0,0,0.017433
2021/10/18 02:38:00.004,n,142,1.44,0.72,2.52,18.2,69.4,1016.92,0,0,0,0,0.018272
2021/10/18 02:39:00.001,n,160,2.16,1.44,2.52,18.2,69.1,1016.92,0,0,0,0,0.021782
2021/10/18 02:40:00.000,n,171,4.32,2.16,6.12,18.2,69.1,1016.92,0,0,0,0,0.023499
2021/10/18 02:41:00.012,n,206,1.8,1.44,1.8,18.1,69.1,1017.02,0,0,0,0,0.020866
2021/10/18 02:42:00.010,n,204,0.72,0.72,1.08,18.1,69.1,1017.02,0,0,0,0,0.01915
2021/10/18 02:43:00.000,n,187,2.16,1.8,2.88,18.1,69.1,1017.02,0,0,0,0,0.020866
2021/10/18 02:44:00.000,n,190,1.44,0.72,3.6,18.1,69.2,1017.02,0,0,0,0,0.022659
2021/10/18 02:45:00.000,n,208,1.8,1.44,2.52,18.1,69.2,1017.02,0,0,0,0,0.01915
2021/10/18 02:46:00.000,n,124,1.08,0.72,1.44,18.1,69.3,1017.02,0,0,0,0,0.018272
2021/10/18 02:47:00.000,n,241,1.44,0.36,4.68,18.1,69.4,1017.02,0,0,0,0,0.023499
2021/10/18 02:48:00.008,n,285,0.72,0.36,1.44,18.1,69.3,1017.02,0,0,0,0,0.018272
2021/10/18 02:49:00.005,n,273,1.44,0.72,2.52,18.1,69.4,1017.02,0,0,0,0,0.020866
2021/10/18 02:50:00.002,n,299,3.6,2.52,3.96,18.1,69.6,1017.12,0,0,0,0,0.020027
2021/10/18 02:51:00.015,n,269,4.32,3.96,4.32,18.1,69.4,1017.12,0,0,0,0,0.027008
2021/10/18 02:52:00.000,n,277,6.48,6.12,6.84,18.1,69.3,1017.12,0,0,0,0,0.027847
2021/10/18 02:53:00.000,n,263,6.12,5.76,6.84,18,69.2,1017.12,0,0,0,0,0.028763
2021/10/18 02:54:00.000,n,258,6.84,6.48,6.84,18,69.1,1017.12,0,0,0,0,0.027008
2021/10/18 02:55:00.004,n,263,4.32,3.24,5.76,17.9,69.2,1017.12,0,0,0,0,0.031357
2021/10/18 02:56:00.001,n,259,2.88,1.44,3.24,17.8,69.3,1017.02,0,0,0,0,0.028763
2021/10/18 02:57:00.000,n,257,2.52,2.16,2.88,17.8,69.4,1016.92,0,0,0,0,0.030479
2021/10/18 02:58:00.000,n,100,1.08,0,5.4,17.7,69.5,1016.92,0,0,0,0,0.027008
2021/10/18 02:59:00.009,n,190,3.96,3.24,5.4,17.7,69.5,1016.82,0,0,0,0,0.02964
2021/10/18 03:00:00.007,n,157,3.6,3.24,4.32,17.7,69.5,1016.82,0,0,0,0,0.026131
2021/10/18 03:01:00.000,n,153,6.48,4.68,8.64,17.6,70,1016.72,0,0,0,0,0.027847
2021/10/18 03:02:00.000,n,152,6.84,5.04,9.72,17.6,70.2,1016.72,0,0,0,0,0.027008
2021/10/18 03:03:00.000,n,154,6.84,5.04,7.92,17.6,70.2,1016.72,0,0,0,0,0.023499
2021/10/18 03:04:00.000,n,153,3.96,3.24,7.56,17.6,70.3,1016.72,0,0,0,0,0.02964
2021/10/18 03:05:00.000,n,156,7.2,4.68,9.72,17.5,70.4,1016.82,0,0,0,0,0.02964
2021/10/18 03:06:00.005,n,164,8.28,6.12,10.440002,17.5,70.5,1016.82,0,0,0,0,0.025253
2021/10/18 03:07:00.002,n,169,4.32,2.88,5.04,17.5,70.4,1016.82,0,0,0,0,0.026131
2021/10/18 03:08:00.002,n,123,2.16,0.36,3.96,17.5,70.4,1016.92,0,0,0,0,0.027008
2021/10/18 03:09:00.013,n,164,1.44,1.08,2.16,17.5,70.5,1016.92,0,0,0,0,0.028763
2021/10/18 03:10:00.000,n,221,1.08,0.72,1.44,17.5,70.4,1016.92,0,0,0,0,0.027847
2021/10/18 03:11:00.000,n,271,2.16,1.44,2.88,17.5,70.5,1016.92,0,0,0,0,0.024414
2021/10/18 03:12:00.000,n,143,0.36,0,0.72,17.5,70.5,1016.92,0,0,0,0,0.027008
2021/10/18 03:13:00.002,n,196,0.36,0,0.72,17.5,70.4,1016.92,0,0,0,0,0.023499
2021/10/18 03:14:00.000,n,258,1.8,1.44,3.24,17.6,70.3,1016.92,0,0,0,0,0.024414
2021/10/18 03:15:00.000,n,275,6.12,4.68,6.84,17.6,69.9,1016.92,0,0,0,0,0.022659
2021/10/18 03:16:00.010,n,249,2.16,1.8,2.88,17.6,69.9,1016.92,0,0,0,0,0.026131
2021/10/18 03:17:00.007,n,275,4.68,3.96,5.04,17.5,69.7,1017.02,0,0,0,0,0.025253
2021/10/18 03:18:00.005,n,263,6.12,5.76,6.48,17.5,69.7,1017.02,0,0,0,0,0.024414
2021/10/18 03:19:00.000,n,263,6.48,6.12,7.2,17.5,69.5,1017.02,0,0,0,0,0.024414
2021/10/18 03:20:00.000,n,268,5.04,4.68,5.76,17.4,69.6,1017.12,0,0,0,0,0.026131
2021/10/18 03:21:00.000,n,253,4.68,4.32,6.12,17.4,69.7,1017.12,0,0,0,0,0.023499
2021/10/18 03:22:00.000,n,263,6.84,6.84,7.2,17.4,69.8,1017.12,0,0,0,0,0.020905
2021/10/18 03:23:00.008,n,272,3.6,0.72,6.12,17.3,70,1017.12,0,0,0,0,0.020905
2021/10/18 03:24:00.005,n,257,4.32,3.96,4.68,17.3,70,1017.02,0,0,0,0,0.022659
2021/10/18 03:25:00.002,n,264,4.32,3.24,4.68,17.3,70.1,1017.02,0,0,0,0,0.021782
2021/10/18 03:26:00.000,n,273,2.16,2.16,2.52,17.3,70.2,1017.02,0,0,0,0,0.024414
2021/10/18 03:27:00.013,n,271,3.6,3.24,3.96,17.3,70.2,1017.02,0,0,0,0,0.024414
2021/10/18 03:28:00.000,n,286,3.6,2.88,3.96,17.3,70.2,1017.02,0,0,0,0,0.023499
2021/10/18 03:29:00.000,n,266,4.68,3.96,5.04,17.3,70.3,1017.02,0,0,0,0,0.022659
2021/10/18 03:30:00.004,n,266,5.76,5.4,6.48,17.3,70.1,1017.02,0,0,0,0,0.023499
2021/10/18 03:31:00.002,n,264,5.04,4.68,5.4,17.2,70,1017.12,0,0,0,0,0.021782
2021/10/18 03:32:00.000,n,286,3.24,2.16,4.32,17.2,69.9,1017.12,0,0,0,0,0.021782
2021/10/18 03:33:00.000,n,265,3.6,3.6,3.6,17.2,69.9,1017.12,0,0,0,0,0.026131
2021/10/18 03:34:00.009,n,264,7.92,5.76,8.28,17.2,69.8,1017.12,0,0,0,0,0.021782
2021/10/18 03:35:00.006,n,266,5.04,4.68,5.76,17.2,69.7,1017.12,0,0,0,0,0.021782
2021/10/18 03:36:00.004,n,258,5.76,5.04,6.12,17.1,69.7,1017.12,0,0,0,0,0.022659
2021/10/18 03:37:00.001,n,266,5.4,5.04,5.76,17.1,69.7,1017.22,0,0,0,0,0.017433
2021/10/18 03:38:00.000,n,254,2.52,0.36,4.32,17.1,69.7,1017.22,0,0,0,0,0.020905
2021/10/18 03:39:00.000,n,248,4.32,3.6,5.04,17.1,69.7,1017.22,0,0,0,0,0.021782
2021/10/18 03:40:00.000,n,264,7.56,7.2,7.92,17.1,69.7,1017.32,0,0,0,0,0.026093
2021/10/18 03:41:00.007,n,264,5.4,5.04,6.12,17.1,69.7,1017.32,0,0,0,0,0.029564
2021/10/18 03:42:00.005,n,234,5.4,5.4,5.76,17,69.7,1017.32,0,0,0,0,0.028725
2021/10/18 03:43:00.002,n,261,4.68,3.24,5.4,17,69.7,1017.32,0,0,0,0,0.026093
2021/10/18 03:44:00.000,n,247,5.76,5.04,6.12,17,69.6,1017.32,0,0,0,0,0.025215
2021/10/18 03:45:00.012,n,275,4.68,3.96,6.12,17,69.6,1017.32,0,0,0,0,0.028725
2021/10/18 03:46:00.000,n,260,5.4,4.68,6.12,17,69.6,1017.32,0,0,0,0,0.025215
2021/10/18 03:47:00.000,n,242,5.4,5.04,5.76,17,69.6,1017.32,0,0,0,0,0.025215
2021/10/18 03:48:00.003,n,262,5.04,4.68,5.76,17,69.5,1017.32,0,0,0,0,0.028725
2021/10/18 03:49:00.000,n,290,3.24,2.52,3.6,17,69.5,1017.32,0,0,0,0,0.023499
2021/10/18 03:50:00.000,n,281,1.44,0.36,2.52,17,69.7,1017.32,0,0,0,0,0.023499
2021/10/18 03:51:00.010,n,153,1.08,0.72,1.44,17,69.7,1017.22,0,0,0,0,0.023499
2021/10/18 03:52:00.007,n,85,2.16,1.08,2.88,17,69.9,1017.22,0,0,0,0,0.024376
2021/10/18 03:53:00.004,n,145,3.6,3.24,4.32,17.1,69.7,1017.22,0,0,0,0,0.021744
2021/10/18 03:54:00.002,n,154,2.88,1.8,3.24,17.1,69.5,1017.22,0,0,0,0,0.024376
2021/10/18 03:55:00.000,n,169,2.16,2.16,2.88,17.1,69.5,1017.22,0,0,0,0,0.025215
2021/10/18 03:56:00.000,n,247,1.08,0,1.8,17.1,69.4,1017.22,0,0,0,0,0.023499
2021/10/18 03:57:00.000,n,153,3.96,2.88,6.12,17.1,69.6,1017.22,0,0,0,0,0.01915
2021/10/18 03:58:00.006,n,175,3.24,2.52,3.6,17.1,69.4,1017.22,0,0,0,0,0.023499
2021/10/18 03:59:00.004,n,195,2.16,1.44,2.16,17.1,69.4,1017.22,0,0,0,0,0.022621
2021/10/18 04:00:00.001,n,195,1.08,1.08,1.44,17.1,69.4,1017.22,0,0,0,0,0.020866
2021/10/18 04:01:00.000,n,261,1.8,1.44,2.52,17.1,69.5,1017.22,0,0,0,0,0.019989
2021/10/18 04:02:00.011,n,308,2.16,1.44,2.88,17.1,69.6,1017.22,0,0,0,0,0.021744
2021/10/18 04:03:00.009,n,299,0.72,0.36,1.08,17.1,69.5,1017.22,0,0,0,0,0.021744
2021/10/18 04:04:00.000,n,272,2.52,2.16,2.88,17.1,69.6,1017.32,0,0,0,0,0.021744
2021/10/18 04:05:00.001,n,276,2.16,1.8,2.88,17.1,69.6,1017.32,0,0,0,0,0.018272
2021/10/18 04:06:00.000,n,238,1.8,1.44,1.8,17.1,69.6,1017.32,0,0,0,0,0.021744
2021/10/18 04:07:00.000,n,46,1.08,0.72,1.8,17.1,69.8,1017.32,0,0,0,0,0.024376
2021/10/18 04:08:00.000,n,248,1.44,1.08,1.8,17.1,69.6,1017.32,0,0,0,0,0.024376
2021/10/18 04:09:00.006,n,312,0.72,0.36,1.08,17.1,69.7,1017.32,0,0,0,0,0.018272
2021/10/18 04:10:00.004,n,213,3.24,1.8,3.96,17.1,69.7,1017.32,0,0,0,0,0.018272
2021/10/18 04:11:00.000,n,250,1.44,0.72,2.16,17.1,69.7,1017.42,0,0,0,0,0.020866
2021/10/18 04:12:00.014,n,280,1.08,0.36,1.44,17.1,69.8,1017.42,0,0,0,0,0.020866
2021/10/18 04:13:00.000,n,209,0.72,0.36,0.72,17.1,69.8,1017.42,0,0,0,0,0.016518
2021/10/18 04:14:00.000,n,187,0.72,0.36,1.44,17.1,69.8,1017.42,0,0,0,0,0.01915
2021/10/18 04:15:00.000,n,283,2.16,1.8,2.88,17.1,69.8,1017.42,0,0,0,0,0.018272
2021/10/18 04:16:00.004,n,274,4.68,4.32,5.4,17.1,69.8,1017.42,0,0,0,0,0.021744
2021/10/18 04:17:00.003,n,263,5.76,5.76,6.12,17.1,69.8,1017.42,0,0,0,0,0.019989
2021/10/18 04:18:00.000,n,261,6.12,6.12,6.48,17.1,69.9,1017.52,0,0,0,0,0.017395
2021/10/18 04:19:00.000,n,276,5.04,4.68,5.4,17.1,69.9,1017.52,0,0,0,0,0.018272
2021/10/18 04:20:00.010,n,268,6.84,6.12,7.2,17,69.9,1017.52,0,0,0,0,0.019989
2021/10/18 04:21:00.006,n,263,7.2,3.6,8.28,17,69.5,1017.52,0,0,0,0,0.01915
2021/10/18 04:22:00.000,n,252,6.12,5.4,6.84,17,69.7,1017.52,0,0,0,0,0.01915
2021/10/18 04:23:00.001,n,270,6.48,6.48,6.84,16.9,69.5,1017.62,0,0,0,0,0.018272
2021/10/18 04:24:00.000,n,298,4.68,3.6,6.12,16.9,69.6,1017.62,0,0,0,0,0.027008
2021/10/18 04:25:00.000,n,274,7.92,7.56,8.28,16.9,69.4,1017.62,0,0,0,0,0.033989
2021/10/18 04:26:00.005,n,258,5.04,4.68,5.4,16.9,69.5,1017.62,0,0,0,0,0.030479
2021/10/18 04:27:00.003,n,272,5.4,5.04,6.12,16.9,69.5,1017.62,0,0,0,0,0.032234
2021/10/18 04:28:00.000,n,289,3.96,3.24,4.68,16.9,69.6,1017.62,0,0,0,0,0.031357
2021/10/18 04:29:00.012,n,249,3.96,2.88,4.32,16.9,69.6,1017.62,0,0,0,0,0.032234
2021/10/18 04:30:00.009,n,203,1.44,0.72,2.16,16.9,69.6,1017.62,0,0,0,0,0.031357
2021/10/18 04:31:00.000,n,291,2.16,1.44,3.6,16.9,69.4,1017.62,0,0,0,0,0.033112
2021/10/18 04:32:00.000,n,274,5.4,4.68,6.48,16.9,69.3,1017.62,0,0,0,0,0.02964
2021/10/18 04:33:00.000,n,209,3.6,2.88,5.4,16.9,69.4,1017.62,0,0,0,0,0.032234
2021/10/18 04:34:00.000,n,256,1.8,1.08,2.88,16.9,69.5,1017.62,0,0,0,0,0.028763
2021/10/18 04:35:00.000,n,272,5.76,5.4,6.12,16.9,69.4,1017.62,0,0,0,0,0.030479
2021/10/18 04:36:00.008,n,227,0.72,0.36,1.08,16.9,69.4,1017.62,0,0,0,0,0.032234
2021/10/18 04:37:00.005,n,261,3.96,2.88,4.68,16.9,69.4,1017.72,0,0,0,0,0.034828
2021/10/18 04:38:00.003,n,264,6.48,5.76,7.92,16.9,69.2,1017.72,0,0,0,0,0.031357
2021/10/18 04:39:00.000,n,272,1.44,0.36,2.52,16.9,69.4,1017.72,0,0,0,0,0.030479
2021/10/18 04:40:00.000,n,259,5.4,5.04,5.4,16.9,69,1017.72,0,0,0,0,0.031357
2021/10/18 04:41:00.000,n,238,2.88,2.16,3.24,16.9,69.2,1017.72,0,0,0,0,0.033989
2021/10/18 04:42:00.000,n,315,3.6,3.24,4.32,16.9,69.1,1017.82,0,0,0,0,0.033112
2021/10/18 04:43:00.005,n,270,6.12,5.4,6.48,16.9,69.2,1017.82,0,0,0,0,0.036583
2021/10/18 04:44:00.002,n,288,2.16,1.44,2.88,16.9,69.1,1017.82,0,0,0,0,0.036583
2021/10/18 04:45:00.000,n,243,3.96,3.24,4.32,16.9,69.1,1017.82,0,0,0,0,0.034828
2021/10/18 04:46:00.011,n,285,1.8,1.44,2.16,16.9,69.1,1017.82,0,0,0,0,0.040932
2021/10/18 04:47:00.008,n,254,5.76,1.8,6.48,16.9,68.8,1017.82,0,0,0,0,0.040932
2021/10/18 04:48:00.005,n,280,3.6,1.08,6.12,16.9,69,1017.82,0,0,0,0,0.052261
2021/10/18 04:49:00.000,n,247,3.24,2.16,5.4,16.9,69.1,1017.72,0,0,0,0,0.05661
2021/10/18 04:50:00.000,n,299,2.16,1.8,3.24,16.9,69.2,1017.72,0,0,0,0,0.065308
2021/10/18 04:51:00.000,n,274,2.52,1.8,3.24,16.9,69.3,1017.72,0,0,0,0,0.081863
2021/10/18 04:52:00.000,n,267,1.08,0.72,1.44,16.9,69.4,1017.72,0,0,0,0,0.09922
2021/10/18 04:53:00.007,n,141,1.8,1.44,2.52,16.9,69.4,1017.72,0,0,0,0,0.127945